[[{"header":{"parameterUnit":"m.s-1","parameterCategory":1,"la1":30.2991,"la2":30.254,"lo1":-89.0895,"lo2":-89.0444,"dy":0.0017,"dx":0.0017,"nx":28,"ny":28,"refTime":"2025-08-02T21:00:00:Z","depth":0,"parameterNumber":2,"parameterNumberName":"U-component_of_WINDS"},"data":[0,0,0,0,0,0,0,0,0,0,0,0,0,0,0,0,0,0,0,0,0,0,0,0,0,0,0,0,0,0,0,0,0,0,0,0,0,0,0,0,0,0,0,0,0,0,0,0,0,0,0,0,0,0,0,0,0,0,0.7176,0.7175,0,0.7027,0.7025,0.7023,0.6887,0.6885,0.6884,0.6882,0.6723,0.672,0.6718,0,0,0,0,0,0,0,0,0,0,0,0,0,0.7338,0.7336,0.7176,0.7175,0.7173,0.7027,0.7025,0.7023,0.6887,0.6885,0.6883,0.6881,0.6724,0.6721,0.6718,0,0,0,0,0,0,0,0,0,0,0,0,0,0.7236,0.7335,0.7177,0.7088,0.7078,0.7027,0.7025,0.7022,0.6888,0.6885,0.6883,0.688,0.6725,0.6721,0.6717,0.6741,0,0,0.6705,0.6703,0,0,0,0,0,0,0,0,0.7242,0.723,0.7103,0.7094,0.7083,0.6973,0.7024,0.6928,0.6888,0.696,0.6882,0.6879,0.6808,0.6797,0.6774,0.6733,0.6727,0.6704,0.6702,0.67,0.6699,0,0,0,0,0,0,0,0.7249,0.7236,0.7117,0.7101,0.7089,0.7053,0.7036,0.7005,0.6899,0.6953,0.6943,0.6928,0.6802,0.6778,0.6769,0.6724,0.6704,0.6701,0.6698,0.6697,0.6693,0.6696,0,0,0,0,0,0,0.7271,0.7243,0.7122,0.7112,0.7158,0.7052,0.7033,0.7011,0.6899,0.688,0.693,0.6922,0.6786,0.6774,0.6763,0.6782,0.67,0.6696,0.6694,0.6691,0.6694,0.6696,0,0,0,0,0,0,0.7275,0.7262,0.7128,0.7175,0.7155,0.7052,0.7028,0.7009,0.6985,0.6881,0.6861,0.6926,0.6784,0.6769,0.6747,0.6775,0.6694,0.6691,0.6688,0.6692,0.6695,0.6822,0,0,0,0,0,0,0.728,0.7264,0.7273,0.7176,0.7153,0.7117,0.703,0.7008,0.6979,0.6967,0.6872,0.6854,0.6781,0.6754,0.6743,0.6768,0.6688,0.6685,0.669,0.6694,0.6815,0.683,0.6842,0,0,0,0,0,0.7287,0.7314,0.7275,0.7261,0.7163,0.7119,0.7105,0.7023,0.6982,0.699,0.6923,0.6857,0.6774,0.6753,0.674,0.6764,0.6683,0.6689,0.6694,0.6809,0.6827,0.6842,0,0,0,0,0,0,0.7415,0.73,0.7255,0.7252,0.7197,0.7096,0.7103,0.7044,0.6998,0.6988,0.6886,0.6865,0.6855,0.6807,0.6786,0.678,0.6719,0.6722,0.6812,0.6828,0.6841,0.6853,0.6684,0,0,0,0,0,0.7444,0.7419,0.7319,0.7326,0.7301,0.7208,0.7185,0.7126,0.7064,0.7039,0.697,0.6911,0.687,0.6846,0.6804,0.6808,0.6784,0.6817,0.6831,0.6843,0.6846,0.6843,0.6856,0.6714,0.6714,0.6714,0,0,0.7501,0.7435,0.7426,0.735,0.73,0.7275,0.7188,0.7166,0.7145,0.7034,0.7011,0.6958,0.6884,0.6876,0.6868,0.6835,0.688,0.6849,0.6859,0.6856,0.6849,0.6863,0.6875,0.6717,0.6717,0.6716,0,0,0.7594,0.7542,0.7542,0.7494,0.7421,0.7358,0.7359,0.7267,0.7228,0.7203,0.7119,0.7092,0.7026,0.6977,0.6943,0.7017,0.6954,0.7006,0.7076,0.7075,0.7086,0.7095,0.712,0.7131,0.701,0.701,0.701,0,0.7674,0.7635,0.7549,0.7532,0.75,0.7401,0.7399,0.7356,0.7271,0.7251,0.7216,0.713,0.7074,0.7051,0.707,0.7046,0.7041,0.7016,0.7092,0.71,0.7107,0.713,0.714,0.7017,0.7016,0.7015,0.7015,0,0.7737,0.7712,0.772,0.7644,0.7613,0.7603,0.7514,0.7492,0.7436,0.7377,0.7352,0.728,0.7221,0.7212,0.7156,0.7181,0.7163,0.7111,0.7048,0.7129,0.7149,0.7157,0.7027,0.7024,0.7022,0.702,0,0,0.7906,0.7782,0.7787,0.775,0.7662,0.7639,0.7624,0.7569,0.7552,0.7497,0.748,0.7427,0.7379,0.7341,0.7278,0.7277,0.7338,0.7224,0.7221,0.7247,0.736,0.7399,0.741,0.7296,0.7297,0.7298,0.7365,0,0.7983,0.7953,0.7875,0.7868,0.7842,0.7747,0.7734,0.7677,0.7621,0.7589,0.7526,0.749,0.7429,0.7405,0.74,0.7332,0.7359,0.7326,0.7278,0.7277,0.7299,0.7421,0.7462,0.7529,0.7373,0.7374,0.7375,0,0.8068,0.8022,0.8014,0.7926,0.7912,0.7902,0.7844,0.7816,0.7748,0.7707,0.7666,0.7597,0.7573,0.7517,0.7482,0.7461,0.7436,0.74,0.7401,0.7392,0.7331,0.7415,0.7548,0.7558,0.7386,0.7385,0.7384,0,0.8192,0.8126,0.8112,0.8084,0.7982,0.7977,0.7933,0.7864,0.7835,0.7784,0.7764,0.771,0.7681,0.7639,0.7557,0.7523,0.7531,0.7467,0.7495,0.7497,0.75,0.7501,0.7631,0.7486,0.7486,0.7486,0.7486,0,0.8285,0.8283,0.8166,0.8158,0.8152,0.8061,0.8058,0.8005,0.7944,0.7922,0.7835,0.7816,0.7709,0.7677,0.7612,0.7592,0.7579,0.7544,0.7527,0.7552,0.7556,0.7533,0.7526,0.7488,0.7488,0.7487,0.7487,0,0.8421,0.8343,0.8321,0.8227,0.8203,0.8203,0.8121,0.8108,0.8047,0.802,0.8008,0.7912,0.7869,0.7784,0.7716,0.7672,0.7667,0.7637,0.7691,0.768,0.7712,0.771,0.7831,0.7842,0.7693,0.7694,0.7695,0,0.8485,0.8482,0.8388,0.8368,0.8329,0.8298,0.8269,0.8179,0.8151,0.8075,0.807,0.8021,0.7977,0.7913,0.7835,0.7783,0.7751,0.7797,0.7742,0.7767,0.775,0.7751,0.775,0.7809,0.7811,0.7813,0.7814,0,0.8608,0.8569,0.8532,0.8482,0.845,0.8405,0.8355,0.8343,0.8241,0.8214,0.8171,0.8137,0.8069,0.8021,0.7957,0.7909,0.7844,0.7832,0.7835,0.786,0.7891,0.7874,0.7724,0.7829,0.7828,0.7827,0.7826,0.7825,0.8709,0.8701,0.8634,0.8595,0.8549,0.8504,0.8488,0.8426,0.8389,0.8328,0.8277,0.8238,0.8168,0.8077,0.8033,0.7999,0.7968,0.7973,0.7974,0.7976,0.7987,0.7898,0.7987,0.7987,0.7986,0.7986,0.7985,0,0.8826,0.8778,0.8744,0.8678,0.8647,0.8591,0.8533,0.851,0.8477,0.842,0.8379,0.8328,0.8281,0.82,0.8146,0.8134,0.8103,0.8123,0.8122,0.8112,0.8018,0.8021,0.8149,0.8149,0.8149,0.8149,0.8149,0.8149,0.8883,0.8867,0.8821,0.8781,0.8732,0.8695,0.8667,0.8624,0.8578,0.8527,0.8488,0.8437,0.8369,0.8309,0.8262,0.8239,0.8222,0.8252,0.822,0.8134,0.8118,0.8104,0.8105,0.8249,0.8249,0.8315,0.8316,0.8316]},{"header":{"parameterUnit":"m.s-1","parameterCategory":1,"la1":30.2991,"la2":30.254,"lo1":-89.0895,"lo2":-89.0444,"dy":0.0017,"dx":0.0017,"nx":28,"ny":28,"refTime":"2025-08-02T21:00:00:Z","depth":0,"parameterNumber":3,"parameterNumberName":"V-component_of_WINDS"},"data":[0,0,0,0,0,0,0,0,0,0,0,0,0,0,0,0,0,0,0,0,0,0,0,0,0,0,0,0,0,0,0,0,0,0,0,0,0,0,0,0,0,0,0,0,0,0,0,0,0,0,0,0,0,0,0,0,0,0,2.3645,2.3647,0,2.3842,2.3845,2.3847,2.3943,2.3943,2.3943,2.3943,2.4145,2.415,2.4156,0,0,0,0,0,0,0,0,0,0,0,0,0,2.3354,2.3359,2.3645,2.3648,2.365,2.3842,2.3845,2.3847,2.3943,2.3943,2.3943,2.3943,2.4143,2.415,2.4156,0,0,0,0,0,0,0,0,0,0,0,0,0,2.3508,2.336,2.3645,2.3721,2.373,2.3841,2.3845,2.3848,2.3943,2.3943,2.3943,2.3943,2.4141,2.4149,2.4157,2.4208,0,0,2.4182,2.4185,0,0,0,0,0,0,0,0,2.35,2.3519,2.3707,2.3716,2.3726,2.3868,2.3816,2.3969,2.3943,2.3862,2.3943,2.3943,2.4053,2.4068,2.4105,2.4217,2.4226,2.4183,2.4188,2.4191,2.4193,0,0,0,0,0,0,0,2.3489,2.3511,2.3723,2.371,2.3722,2.3746,2.3768,2.3845,2.3955,2.3869,2.3877,2.3899,2.4058,2.4097,2.4111,2.4229,2.4182,2.419,2.4195,2.4198,2.4393,2.4394,0,0,0,0,0,0,2.3465,2.3502,2.3717,2.3729,2.361,2.3751,2.3776,2.3823,2.3955,2.3975,2.3899,2.3903,2.4084,2.4101,2.4118,2.4187,2.4191,2.4199,2.4203,2.4393,2.4393,2.4394,0,0,0,0,0,0,2.3459,2.3484,2.3709,2.3618,2.3648,2.3756,2.3808,2.3827,2.3866,2.3977,2.3997,2.3918,2.4084,2.4107,2.4185,2.4196,2.4202,2.421,2.4393,2.4393,2.4394,2.4324,0,0,0,0,0,0,2.345,2.3481,2.3501,2.3617,2.3653,2.3772,2.3809,2.383,2.388,2.3887,2.4001,2.402,2.4086,2.4172,2.4193,2.4207,2.4216,2.4392,2.4393,2.4393,2.4326,2.4322,2.4319,0,0,0,0,0,2.3439,2.3473,2.3501,2.3527,2.368,2.3772,2.3792,2.3868,2.388,2.3901,2.3973,2.4016,2.4191,2.418,2.4204,2.422,2.4392,2.4393,2.4393,2.4328,2.4323,2.4319,0,0,0,0,0,0,2.3354,2.3489,2.3522,2.3594,2.3671,2.3788,2.3817,2.386,2.3935,2.3939,2.4029,2.4054,2.4124,2.418,2.4165,2.4277,2.4296,2.4301,2.4237,2.4234,2.423,2.4216,2.4223,0,0,0,0,0,2.3344,2.3408,2.3522,2.3575,2.3612,2.3708,2.3751,2.3802,2.3886,2.3918,2.3996,2.4075,2.4148,2.4194,2.4267,2.4335,2.4362,2.4358,2.4354,2.4351,2.4355,2.4396,2.4396,2.4396,2.4396,2.4396,0,0,2.3323,2.3405,2.344,2.356,2.3626,2.369,2.3734,2.38,2.3849,2.3929,2.4007,2.4067,2.4161,2.4234,2.427,2.4283,2.4361,2.4352,2.4348,2.4354,2.4397,2.4396,2.4396,2.4397,2.4397,2.4397,0,0,2.3319,2.3386,2.3438,2.3503,2.3602,2.3666,2.3678,2.3789,2.3832,2.3912,2.3974,2.4033,2.4157,2.4222,2.4271,2.4293,2.4336,2.4314,2.4296,2.4335,2.4335,2.4335,2.4344,2.4345,2.4318,2.4317,2.4317,0,2.328,2.3379,2.3459,2.3523,2.3574,2.3649,2.3703,2.3762,2.388,2.3914,2.3926,2.4084,2.4153,2.4243,2.4248,2.4285,2.4303,2.4301,2.4328,2.4329,2.4331,2.434,2.4343,2.4314,2.4315,2.4315,2.4315,0,2.3328,2.3396,2.3426,2.3538,2.3593,2.3651,2.374,2.3787,2.3834,2.3896,2.3978,2.4064,2.4156,2.4181,2.4228,2.4278,2.4283,2.4311,2.4332,2.4326,2.4336,2.4341,2.4309,2.4311,2.4312,2.4312,0,0,2.3274,2.343,2.344,2.3492,2.3607,2.3662,2.3724,2.3814,2.3853,2.3932,2.3986,2.409,2.4117,2.4172,2.4227,2.4261,2.4274,2.4285,2.4289,2.4281,2.4337,2.4315,2.4318,2.4303,2.4304,2.4305,2.4329,0,2.3286,2.3399,2.3474,2.3559,2.3623,2.3696,2.3751,2.3827,2.3888,2.3952,2.4019,2.4091,2.412,2.4155,2.4192,2.4264,2.4286,2.4264,2.4356,2.4358,2.433,2.4323,2.4301,2.4319,2.4333,2.4334,2.4334,0,2.3314,2.3391,2.3482,2.3591,2.3621,2.3668,2.3758,2.3818,2.3907,2.3949,2.4012,2.4068,2.4138,2.4153,2.425,2.4233,2.4276,2.4317,2.432,2.4331,2.4346,2.4335,2.4326,2.4329,2.4341,2.4341,2.434,0,2.3266,2.3392,2.3464,2.3506,2.3635,2.3667,2.3722,2.3812,2.3862,2.3941,2.3974,2.406,2.4107,2.4172,2.425,2.4254,2.434,2.4362,2.4378,2.4375,2.4392,2.439,2.439,2.4419,2.4419,2.4418,2.4418,0,2.3271,2.3323,2.3444,2.3487,2.355,2.3635,2.3695,2.3756,2.3835,2.3893,2.3962,2.4015,2.4114,2.418,2.4241,2.4313,2.4334,2.437,2.4386,2.4364,2.4359,2.4393,2.4394,2.4419,2.4419,2.4419,2.4419,0,2.3227,2.331,2.3392,2.3508,2.3539,2.3579,2.3679,2.3725,2.379,2.3862,2.3884,2.3986,2.4066,2.4151,2.426,2.4302,2.4371,2.4393,2.4341,2.435,2.4361,2.4359,2.4383,2.4391,2.4413,2.4413,2.4412,0,2.3224,2.3267,2.3388,2.3431,2.3485,2.3554,2.3606,2.3693,2.3744,2.385,2.3883,2.3969,2.4042,2.4168,2.4252,2.4337,2.4361,2.4364,2.4374,2.4352,2.4362,2.4359,2.4364,2.436,2.4359,2.4359,2.4358,0,2.3211,2.325,2.3322,2.3409,2.3469,2.3541,2.3616,2.3648,2.375,2.3805,2.3888,2.3945,2.4057,2.4142,2.4237,2.4295,2.4344,2.4355,2.4363,2.4341,2.4309,2.4327,2.4332,2.4354,2.4354,2.4354,2.4355,2.4355,2.3188,2.323,2.3322,2.34,2.3466,2.3535,2.3584,2.3656,2.3727,2.3825,2.3872,2.3956,2.4046,2.4179,2.4236,2.4303,2.4317,2.4329,2.4332,2.4334,2.4328,2.4298,2.4321,2.4321,2.4321,2.4322,2.4322,0,2.3179,2.3242,2.3313,2.3416,2.3478,2.3519,2.3605,2.3654,2.3727,2.3807,2.3878,2.3975,2.4058,2.4149,2.4238,2.4275,2.43,2.4295,2.4293,2.4306,2.431,2.4295,2.4274,2.4274,2.4274,2.4274,2.4274,2.4274,2.3181,2.3254,2.3304,2.3411,2.3475,2.3557,2.3603,2.3668,2.3732,2.3837,2.3906,2.3966,2.4051,2.4147,2.4225,2.425,2.428,2.4269,2.43,2.4302,2.4306,2.4309,2.4295,2.4275,2.4275,2.4291,2.4291,2.4291]}]]